Weather History for Sierra Vista, AZ

Change the Weather History Date:

Sunday, March 18, 2012

  Actual Average Record
Temperature  
Mean Temperature 46 °F -  
Max Temperature 55 °F 69 °F 82 °F (2009)
Min Temperature 36 °F 46 °F 29 °F (1991)
Degree Days  
Heating Degree Days 19    
Moisture  
Dew Point 33 °F    
Average Humidity 64    
Maximum Humidity 89    
Minimum Humidity 27    
Precipitation  
Precipitation 0.23 in - - ()
Sea Level Pressure  
Sea Level Pressure 29.76 in    
Wind  
Wind Speed 26 mph (SW)    
Max Wind Speed 37 mph    
Max Gust Speed 47 mph    
Visibility 8 miles    
Events Rain    
Averages and records for this station are not official NWS values.
T = Trace of Precipitation, MM = Missing Value Source: NWS Daily Summary

Daily Weather History Graph

Daily Weather History Graph

Search for Another Location

Airport:

Trip Planner

Search our weather history database for the weather conditions in past years. The results will help you decide how hot, cold, wet, or windy it might be!

Date:

Astronomy

Mar. 18, 2012 Rise Set
Actual Time 6:26 AM MST 6:31 PM MST
Civil Twilight 6:02 AM MST 6:56 PM MST
Nautical Twilight 5:34 AM MST 7:24 PM MST
Astronomical Twilight 5:05 AM MST 7:53 PM MST
Moon 3:55 AM MST (3/18) 3:13 PM MST (3/18)
Length of Visible Light 12h 53m
Length of Day
12h 04m
Waning Crescent, 14% of the Moon is Illuminated
Mar 18
Waning Crescent
Mar 22
New
Mar 30
First Quarter
Apr 6
Full
Apr 13
Last Quarter

Hourly Weather History & Observations

Time (MST) Temp. Windchill Dew Point Humidity Pressure Visibility Wind Dir Wind Speed Gust Speed Precip Events Conditions
12:56 AM 55.9 °F - 21.9 °F 27% 29.62 in 10.0 mi SSW 36.8 mph 47.2 mph N/A   Clear
1:56 AM 54.0 °F - 21.9 °F 29% 29.63 in 10.0 mi SSW 36.8 mph 47.2 mph N/A   Clear
2:56 AM 54.0 °F - 26.1 °F 34% 29.63 in 10.0 mi South 29.9 mph 43.7 mph N/A   Clear
3:56 AM 53.1 °F - 30.0 °F 41% 29.62 in 10.0 mi SSW 26.5 mph 39.1 mph N/A   Clear
4:56 AM 52.0 °F - 28.9 °F 41% 29.61 in 10.0 mi South 33.4 mph 44.9 mph N/A   Clear
5:56 AM 52.0 °F - 28.9 °F 41% 29.62 in 10.0 mi SSW 32.2 mph 46.0 mph N/A   Partly Cloudy
6:56 AM 51.1 °F - 30.0 °F 44% 29.64 in 10.0 mi South 25.3 mph 41.4 mph N/A   Mostly Cloudy
7:56 AM 50.0 °F - 27.0 °F 41% 29.65 in 10.0 mi South 29.9 mph 39.1 mph N/A   Partly Cloudy
8:56 AM 51.1 °F - 30.0 °F 44% 29.65 in 10.0 mi South 32.2 mph 42.6 mph 0.00 in Rain Light Rain
9:38 AM 44.6 °F 35.9 °F 37.4 °F 76% 29.82 in 2.5 mi WSW 23.0 mph 35.7 mph 0.06 in Rain Rain
9:44 AM 42.8 °F 34.0 °F 37.4 °F 81% 29.82 in 1.8 mi WSW 20.7 mph 33.4 mph 0.09 in Rain Heavy Rain
9:54 AM 42.8 °F 35.1 °F 37.4 °F 81% 29.82 in 2.5 mi WSW 16.1 mph 26.5 mph 0.11 in Rain Rain
9:56 AM 42.1 °F 33.3 °F 37.9 °F 85% 29.75 in 3.0 mi WSW 19.6 mph 26.5 mph 0.12 in Rain Rain
10:56 AM 41.0 °F 31.6 °F 36.0 °F 82% 29.78 in 5.0 mi WSW 20.7 mph 32.2 mph 0.04 in Rain Light Rain
11:56 AM 41.0 °F 31.9 °F 37.9 °F 89% 29.80 in 6.0 mi West 19.6 mph 27.6 mph 0.03 in Rain Light Rain
12:56 PM 41.0 °F 33.1 °F 37.0 °F 86% 29.78 in 6.0 mi WSW 15.0 mph 20.7 mph 0.02 in Rain Light Rain
1:56 PM 43.0 °F 34.5 °F 37.0 °F 80% 29.77 in 10.0 mi SW 19.6 mph - 0.01 in Rain Light Rain
2:09 PM 42.8 °F 34.0 °F 37.4 °F 81% 29.83 in 9.0 mi SW 20.7 mph 25.3 mph 0.00 in Rain Light Rain
2:34 PM 44.6 °F 36.4 °F 35.6 °F 71% 29.83 in 10.0 mi SW 20.7 mph 27.6 mph 0.00 in   Mostly Cloudy
2:56 PM 44.1 °F 37.7 °F 37.0 °F 76% 29.77 in 10.0 mi WSW 12.7 mph 19.6 mph 0.00 in Rain Light Rain
3:15 PM 44.6 °F 38.1 °F 37.4 °F 76% 29.83 in 10.0 mi WSW 13.8 mph 21.9 mph 0.00 in   Mostly Cloudy
3:42 PM 44.6 °F 39.2 °F 37.4 °F 76% 29.82 in 7.0 mi SW 10.4 mph 19.6 mph 0.00 in Rain Light Rain
3:56 PM 45.0 °F 35.6 °F 37.0 °F 74% 29.76 in 10.0 mi SSW 27.6 mph 38.0 mph 0.01 in Rain Light Rain
4:18 PM 44.6 °F 35.1 °F 35.6 °F 71% 29.83 in 9.0 mi SW 27.6 mph 38.0 mph 0.00 in Rain Light Rain
4:56 PM 44.1 °F 34.4 °F 34.0 °F 68% 29.77 in 10.0 mi SSW 27.6 mph 38.0 mph 0.00 in   Partly Cloudy
5:56 PM 43.0 °F 35.4 °F 33.1 °F 68% 29.75 in 10.0 mi SSW 16.1 mph 33.4 mph 0.00 in   Partly Cloudy
6:56 PM 43.0 °F 34.8 °F 30.0 °F 60% 29.76 in 10.0 mi SW 18.4 mph 31.1 mph N/A   Partly Cloudy
7:56 PM 42.1 °F 34.5 °F 30.0 °F 62% 29.80 in 10.0 mi WSW 15.0 mph 27.6 mph N/A   Clear
8:56 PM 39.0 °F 31.8 °F 30.0 °F 70% 29.82 in 10.0 mi WNW 11.5 mph - N/A   Scattered Clouds
9:56 PM 39.0 °F 31.0 °F 28.9 °F 67% 29.87 in 10.0 mi West 13.8 mph 21.9 mph N/A   Mostly Cloudy
10:56 PM 37.9 °F 30.9 °F 28.9 °F 70% 29.88 in 10.0 mi West 10.4 mph - N/A   Partly Cloudy
11:56 PM 36.0 °F 29.0 °F 27.0 °F 70% 29.87 in 10.0 mi WNW 9.2 mph - N/A   Partly Cloudy